Charlottesville, VA

2:16 AM EST on November 17, 2019 (GMT -0500)
Charlottesville-Albemarle

Weather History for KCHO - September, 2019

Change the Weather History Date:

Tuesday, September 17, 2019

  Actual Average Record
Temperature  
Mean Temperature 70 °F 66 °F  
Max Temperature 75 °F 78 °F 96 °F (1970)
Min Temperature 65 °F 55 °F 40 °F (2001)
Degree Days  
Heating Degree Days 0 2  
Month to date heating degree days 0 11  
Since 1 July heating degree days 0 14  
Cooling Degree Days 6 3  
Month to date cooling degree days 208 84  
Year to date cooling degree days 1665 994  
Growing Degree Days 20 (Base 50)    
Moisture  
Dew Point 64 °F    
Average Humidity 75    
Maximum Humidity 87    
Minimum Humidity 65    
Precipitation  
Precipitation T in 0.19 in 0.85 in (2018)
Month to date precipitation 0.21 2.13  
Year to date precipitation 28.16 30.27  
Sea Level Pressure  
Sea Level Pressure 30.06 in    
Wind  
Wind Speed 5 mph ()    
Max Wind Speed 16 mph    
Max Gust Speed 20 mph    
Visibility 9.6 miles    
Events      
T = Trace of Precipitation, MM = Missing Value Source: Averaged Metar Reports

Daily Weather History Graph

Daily Weather History Graph

Search for Another Location

Airport or City:

Astronomy

Sep. 17, 2019 Rise Set
Actual Time 6:57 AM EDT 7:19 PM EDT
Civil Twilight 6:30 AM EDT 7:45 PM EDT
Nautical Twilight 5:59 AM EDT 8:16 PM EDT
Astronomical Twilight 5:27 AM EDT 8:47 PM EDT
Moon 9:23 PM EDT 9:57 AM EDT
Length of Visible Light 13h 14m
Length of Day
12h 21m
Waning Gibbous, 89% of the Moon is Illuminated
Sep 17
Waning Gibbous
Sep 21
Last Quarter
Sep 28
New
Oct 5
First Quarter
Oct 13
Full

Hourly Weather History & Observations

Time (EDT) Temp. Dew Point Humidity Pressure Visibility Wind Dir Wind Speed Gust Speed Precip Events Conditions
12:53 AM 71.1 °F 64.0 °F 78% 29.97 in 10.0 mi Calm Calm - N/A   Clear
1:53 AM 72.0 °F 64.0 °F 76% 29.98 in 10.0 mi NE 5.8 mph - N/A   Scattered Clouds
2:53 AM 71.1 °F 63.0 °F 75% 29.98 in 10.0 mi NNE 4.6 mph - N/A   Mostly Cloudy
3:53 AM 71.1 °F 63.0 °F 75% 29.97 in 10.0 mi NNE 3.5 mph - N/A   Clear
4:53 AM 70.0 °F 63.0 °F 78% 29.98 in 10.0 mi NNE 3.5 mph - N/A   Mostly Cloudy
5:53 AM 70.0 °F 62.1 °F 76% 29.99 in 10.0 mi NNE 5.8 mph - N/A   Clear
6:53 AM 71.1 °F 62.1 °F 73% 30.01 in 10.0 mi Variable 3.5 mph - N/A   Partly Cloudy
7:53 AM 72.0 °F 62.1 °F 71% 30.04 in 10.0 mi NE 5.8 mph - N/A   Mostly Cloudy
8:53 AM 73.0 °F 63.0 °F 71% 30.06 in 10.0 mi NE 9.2 mph - N/A   Overcast
9:48 AM 75.2 °F 62.6 °F 65% 30.10 in 10.0 mi NE 11.5 mph - N/A   Overcast
9:53 AM 73.9 °F 63.0 °F 68% 30.08 in 10.0 mi NE 12.7 mph - N/A   Mostly Cloudy
10:53 AM 73.9 °F 64.0 °F 71% 30.09 in 10.0 mi NNE 8.1 mph - N/A   Overcast
11:53 AM 75.9 °F 64.9 °F 69% 30.09 in 10.0 mi NE 10.4 mph - N/A   Overcast
12:53 PM 75.0 °F 64.9 °F 71% 30.09 in 10.0 mi North 10.4 mph - N/A   Overcast
1:53 PM 73.0 °F 64.0 °F 73% 30.09 in 9.0 mi NNE 11.5 mph - N/A   Overcast
2:07 PM 73.0 °F 64.0 °F 73% 30.11 in 9.0 mi NNE 11.5 mph - N/A   Overcast
2:53 PM 71.1 °F 64.0 °F 78% 30.09 in 9.0 mi North 8.1 mph - N/A   Overcast
3:53 PM 73.0 °F 66.0 °F 79% 30.08 in 10.0 mi Variable 4.6 mph - 0.00 in   Overcast
4:26 PM 73.0 °F 66.0 °F 79% 30.09 in 10.0 mi Calm Calm - N/A   Overcast
4:53 PM 73.9 °F 64.9 °F 73% 30.07 in 10.0 mi NNE 3.5 mph - N/A   Overcast
5:53 PM 73.9 °F 64.9 °F 73% 30.07 in 10.0 mi North 3.5 mph - N/A   Overcast
6:53 PM 72.0 °F 64.0 °F 76% 30.08 in 10.0 mi North 3.5 mph - N/A   Overcast
7:53 PM 71.1 °F 64.0 °F 78% 30.09 in 10.0 mi North 3.5 mph - N/A   Overcast
8:53 PM 70.0 °F 64.0 °F 81% 30.10 in 10.0 mi Calm Calm - N/A   Mostly Cloudy
9:53 PM 69.1 °F 64.0 °F 84% 30.11 in 9.0 mi Calm Calm - N/A   Scattered Clouds
10:53 PM 66.9 °F 63.0 °F 87% 30.12 in 7.0 mi Calm Calm - N/A   Clear
11:53 PM 66.9 °F 62.1 °F 84% 30.11 in 6.0 mi North 3.5 mph - N/A   Haze